Location: Misciano
(43.5000°N, 11.9500°E)
Time: 05:01:11
(UTC+00:00)

Cosmos 1500 - Pass Details

Date: 13 August 2020
Orbit: 500 x 518 km, 82.5° (Epoch: 19 September)

Event Time Altitude Azimuth Distance (km) Brightness Sun altitude
Exits shadow 20:59:47 51° 7° (N) 641 3.8 -24.2°
Drops below altitude 10° 21:02:39 10° 8° (N) 1,718 6.4 -24.5°
Sets 21:04:47 0° 9° (N) 2,609 7.4 -24.8°
